Regional Weather Roundup
Issued by NWS Upton, NY

Current Version | Previous Version | Graphics & Text | Print | Product List | Glossary Off
Versions: 1 2 3 4 5 6 7 8 9 10 11 12 13 14 15 16 17 18 19 20 21 22 23 24 25 26 27 28

000
ASUS41 KOKX 250805
RWROKX

REGIONAL WEATHER ROUNDUP
NATIONAL WEATHER SERVICE NEW YORK NY
400 AM EDT MON JUL 25 2016

NOTE: "FAIR" INDICATES FEW OR NO CLOUDS BELOW 12,000 FEET WITH NO
SIGNIFICANT WEATHER AND/OR OBSTRUCTIONS TO VISIBILITY.

NYZ071-072-176-178-NJZ106-104-250900-
NEW YORK CITY METRO AREA

CITY           SKY/WX    TMP DP  RH WIND       PRES   REMARKS
Central Park   CLOUDY    81  64  56 SW3       29.97S
LaGuardia APRT CLOUDY    83  64  52 S7        29.93S
Kennedy INTL   CLOUDY    76  68  76 S6        29.95S
Newark/Liberty CLOUDY    80  66  62 SW7       29.93F
BRNX BOT. GARD   N/A     81  63  54 E2        29.93F
Wall St Helipt CLOUDY    79  66  65 SW5       29.95S
Teterboro      CLOUDY    81  64  56 S6        29.92S
$$

NYZ177-179-078>081-250900-
LONG ISLAND NEW YORK

CITY           SKY/WX    TMP DP  RH WIND       PRES   REMARKS
FARMINGDALE    CLOUDY    76  69  79 S5        29.95F
ISLIP          CLOUDY    76  72  87 SW6       29.95S
SHIRLEY        CLOUDY    73  70  90 S5        29.96S
RIVERHEAD      NOT AVBL
WESTHAMPTON    CLEAR     70  68  93 S3        29.97F
SOUTHAMPTON      N/A     73  70  88 SW5       29.92S
BRIDGEHAMPTON    N/A     70  66  88 CALM      29.95S
EAST HAMPTON   FAIR      72  68  88 SW3       29.95S
MONTAUK POINT    N/A     74  66  76 SW3       29.96F
$$

NYZ052-065-067-250900-
HUDSON VALLEY

CITY           SKY/WX    TMP DP  RH WIND       PRES   REMARKS
WHITE PLAINS   CLOUDY    73  68  84 CALM      29.94F
NEWBURGH       CLEAR     72  68  88 CALM      29.95F
MONTGOMERY     MOCLDY    67  64  90 CALM      29.94S
POUGHKEEPSIE   CLEAR     70  65  84 N3        29.92F
ALBANY         CLOUDY    68  64  87 CALM      29.93F
$$

NJZ001-105-106-008-010-013-015-019>022-104-250900-
NEW JERSEY

CITY           SKY/WX    TMP DP  RH WIND       PRES   REMARKS
NEWARK/LIBERTY CLOUDY    80  66  62 SW7       29.93F
TETERBORO      CLOUDY    81  64  56 S6        29.92S
CALDWELL       CLOUDY    80  65  59 SW3       29.94S
MORRISTOWN     CLOUDY    77  63  61 SW5       29.95R
SOMERVILLE     LGT RAIN  75  70  84 CALM      29.93S
SUSSEX         CLOUDY    71  68  90 SW3       29.95R
ANDOVER          N/A     75  66  73 CALM      29.95S
TRENTON        CLOUDY    79  65  62 S5        29.94F
MILLVILLE      CLOUDY    78  75  90 CALM      29.95F
ATLANTIC CITY  CLOUDY    79  76  90 S8        29.96S
WRIGHTSTOWN    CLOUDY    75  72  91 S2        29.93S
TOMS RIVER     CLOUDY    76  75  97 S7        29.96F
BELMAR         CLOUDY    77  71  82 S5        29.97S
$$

PAZ047>061-062-071-250900-
EASTERN PENNSYLVANIA

CITY           SKY/WX    TMP DP  RH WIND       PRES   REMARKS
PHILADELPHIA   CLOUDY    80  71  74 S8        29.94F
ALLENTOWN      PTCLDY    77  68  73 NW6       29.95S
SCRANTON       CLOUDY    76  68  76 SW5       29.96S
$$

CTZ002-004>006-009-010-012-RIZ004-006-007-MAZ004-011-015-250900-
SOUTHERN NEW ENGLAND
 IN CT

CITY           SKY/WX    TMP DP  RH WIND       PRES   REMARKS
BRADLEY INTL   PTCLDY    67  60  78 CALM      29.94S
HARTFORD       CLEAR     73  67  81 CALM      29.94F
DANBURY        CLOUDY    69  65  86 CALM      29.96F
WTRBRY/OXFORD    N/A     66  63  88 CALM      29.97S
BRIDGEPORT     CLOUDY    75  69  81 S5        29.94S
MERIDEN        CLEAR     68  64  87 CALM      29.94F
NEW HAVEN      CLOUDY    69  68  96 CALM      29.95F
CHESTER        FAIR      70  68  94 CALM      29.96F
GROTON         CLEAR     69  66  90 CALM      29.95S
WILLIMANTIC    NOT AVBL

 IN RI

CITY           SKY/WX    TMP DP  RH WIND       PRES   REMARKS
PROVIDENCE     CLOUDY    70  65  84 CALM      29.95F
BLOCK ISLAND   PTCLDY    69  64  84 SW7       29.96F
WESTERLY       CLEAR     66  62  87 CALM      29.96S

 IN MA

CITY           SKY/WX    TMP DP  RH WIND       PRES   REMARKS
BOSTON         PTCLDY    71  64  78 CALM      29.94F
WORCESTER      CLOUDY    72  49  44 CALM      29.98F
WESTFIELD      CLEAR     65  57  75 CALM      29.95F
PROVINCETOWN   CLEAR     65  64  97 S5        29.95S
NANTUCKET      CLEAR     68  67  96 SW7       29.97R
$$

ANZ330-335-338-340-345-350-353-355-250900-
COASTAL MARINE OBSERVATIONS


STATION/POSITION TIME  SKY/WX   TEMP    WIND        PRES    VSBY  WAVE
                                AIR SEA DIR/SP/G                  HT/PER
                 (UTC)          (F)     (DEG/KT/KT) (MB)    (MI)  (FT/S)
NY HARB ENTRANCE 0650            75 74  210/ 10/ 12 1013.8          2/ 6
20S FIRE ISLAND  0650            76 73  220/ 10/ 10 1013.8          3/ 6
GREAT SOUTH BAY  0730            77 81  240/ 12/ 14   N/A
23 SSW MONTAUK P 0650            75 72  220/  8/ 10 1014.8          2/ 6
15 E BARNEGAT LI 0722               76                N/A           2/ 5
HUDSON CANYON    0650            78 77              1014.7          2/ 6
KINGS POINT      0700            78 71              1013.6
EXECUTION ROCKS  0700            73      20/  2/  2   N/A
CENTRAL LI SOUND 0630            75 74  220/  8/ 10   N/A           1/ 3
EASTERN LI SOUND 0700            69 68  110/  2/  4   N/A
ROBBINS REEF     0700            79     170/  5/  6 1013.2
$$


>>>>>>>>>>>>>>>>>>>>>>>>>>>> KEY <<<<<<<<<<<<<<<<<<<<<<<<<<<
>                                                          <
>     SKY/WX - SKY CONDITION/PRESENT WEATHER               <
>     TMP    - TEMPERATURE IN FAHRENHEIT                   <
>     DP     - DEWPOINT IN FAHRENHEIT                      <
>     RH     - RELATIVE HUMIDITY IN PERCENT                <
>     WIND   - DIRECTION AND SPEED IN MPH                  <
>     PRES   - MEAN SEA LEVEL PRESSURE IN INCHES OF HG     <
>     WCI    - WIND CHILL INDEX                            <
>     VSB    - VISIBILITY IN MILES                         <
>     HX     - HEAT INDEX                                  <
>     TC     - TEMPERATURE IN CELSIUS                      <
>     VRB    - VARIABLE WIND DIRECTION                     <
>                                                          <
>>>>>>>>>>>>>>>>>>>>>>>>>>>> KEY <<<<<<<<<<<<<<<<<<<<<<<<<<<






USA.gov is the U.S. government's official web portal to all federal, state and local government web resources and services.